YMENYMAV

Guest
Details From YMEN - Essendon
To YMAV - Avalon
Flight Number -
Tags generated
Created
Modified
Stats Distance 34 nm / 63 km
Max Altitude 2,000 ft / 610 m
Waypoints 3
Social Downloads 2
Likes 0
Share VATSIM

Download

Looking for another format? Having issues loading an existing format? Contact us
Advertisement - Login to hide

Notes

Basic altitude profile: - Ascent Rate: 1000ft/min - Ascent Speed: 140kts - Cruise Altitude: 4000ft - Cruise Speed: 150kts - Descent Rate: 500ft/min - Descent Speed: 110kts

Route

YMEN ML YMAV

ID Type Via Altitude Latitude Longitude Leg Dist Tot Dist Heading (true) Name
O YMEN APT - 0 ft / 0 m -37.72869˚ 144.90240˚ - 0 nm - Essendon
ML VOR - 2,000 ft / 610 m -37.66000˚ 144.84194˚ 5 nm 5 nm 325° / 325° MELBOURNE VOR-DME
O YMAV APT - 0 ft / 0 m -38.04084˚ 144.46713˚ 28 nm 33 nm 218° / 218° Avalon

Altitude Profile

Advertisement - Login to hide

YMEN

Details ICAO YMEN (MEB)
Name Essendon
Region Australia
Timezone Australia/Melbourne (UTC+11.0)
Stats Elevation 281 ft / 86 m (AMSL)
Location -37.728692° 144.902400°
Runways 2
Magnetic Variation 11.556° E

METAR

YMEN 160200Z AUTO 19009KT 9999 // NCD 23/11 Q1014

Decode

TAF

Not found

Departure Runways

ID Width Length Bearing (true) Bearing (mag) Surface Threshold Offset Overrun Length
08 164 ft / 50 m 6,293 ft / 1,918 m 88.02° 76.46° Asphalt 0 ft / 0 m 0 ft / 0 m
17 148 ft / 45 m 4,364 ft / 1,330 m 177.90° 166.34° Asphalt 0 ft / 0 m 0 ft / 0 m
26 164 ft / 50 m 6,293 ft / 1,918 m 268.01° 256.45° Asphalt 0 ft / 0 m 0 ft / 0 m
35 148 ft / 45 m 4,364 ft / 1,330 m 357.90° 346.34° Asphalt 0 ft / 0 m 863 ft / 263 m

YMAV

Details ICAO YMAV (AVV)
Name Avalon
Region Australia
Timezone Australia/Melbourne (UTC+11.0)
Stats Elevation 35 ft / 11 m (AMSL)
Location -38.040844° 144.467132°
Runways 1
Magnetic Variation 11.473° E

METAR

YMAV 160200Z AUTO 11013KT 9999 // NCD 23/12 Q1015

Decode

TAF

TAF YMAV 152314Z 1600/1624 29005KT 9999 FEW035 BECMG 1601/1603 12012KT CAVOK FM160500 17015KT CAVOK FM161000 16010KT CAVOK FM161300 13008KT 9999 SCT020 FM161600 13008KT 9999 FEW015 BKN020 FM162300 13012KT 9999 SCT025

Decode

Destination Runways

ID Width Length Bearing (true) Bearing (mag) Surface Threshold Offset Overrun Length
18 148 ft / 45 m 10,010 ft / 3,051 m 187.50° 176.03° Asphalt 0 ft / 0 m 797 ft / 243 m
36 148 ft / 45 m 10,010 ft / 3,051 m 7.50° 356.03° Asphalt 0 ft / 0 m 1,010 ft / 308 m

Approach Navaids

Runway Type Ident Frequency Range Bearing (true) Bearing (mag) Slope Elevation
18 Localiser IAV 109.50 MHz 18 nm / 33 km 187.62° 176.15° - 32 ft / 10 m (AMSL)
18 Glidescope IAV 109.50 MHz 10 nm / 19 km 187.50° 176.03° 3.00° 35 ft / 11 m (AMSL)
18 DME IAV 109.50 MHz 18 nm / 33 km - - - 35 ft / 11 m (AMSL)

Popular Alternatives